This is the latest recevied weather packets stored in our database for station/object SP5EB-3. If no packets are shown the sender has not sent any weather packets the latest 10 day(s).
| Time | Temp. | Humidity | Pressure | Rain* | Wind** | Luminosity | Snow |
|---|---|---|---|---|---|---|---|
| 1788005897 | 23.33° C | 82% | 1011.6 hPa | - | - | - | - |
| 1788005578 | 23.33° C | 99% | 1011.8 hPa | - | - | - | - |
| 1788005270 | 22.78° C | 99% | 1011.8 hPa | - | - | - | - |
| 1788004961 | 22.22° C | 99% | 1011.8 hPa | - | - | - | - |
| 1788004654 | 21.67° C | 1% | 1011.7 hPa | - | - | - | - |
| 1788004347 | 20.56° C | 91% | 1011.8 hPa | - | - | - | - |
| 1788004033 | 20° C | 1% | 1011.8 hPa | - | - | - | - |
| 1788003725 | 19.44° C | 99% | 1011.8 hPa | - | - | - | - |
| 1788003416 | 18.33° C | 99% | 1011.7 hPa | - | - | - | - |
| 1788002799 | 17.22° C | 99% | 1011.5 hPa | - | - | - | - |
| 1788002491 | 17.22° C | 99% | 1011.6 hPa | - | - | - | - |
| 1788002183 | 17.22° C | 99% | 1011.6 hPa | - | - | - | - |
| 1788001875 | 16.67° C | 99% | 1011.6 hPa | - | - | - | - |
| 1788001566 | 16.67° C | 99% | 1011.9 hPa | - | - | - | - |
| 1788001258 | 16.67° C | 99% | 1011.9 hPa | - | - | - | - |
| 1788000645 | 16.67° C | 99% | 1011.9 hPa | - | - | - | - |
| 1788000335 | 16.67° C | 99% | 1011.8 hPa | - | - | - | - |
| 1788000027 | 16.67° C | 99% | 1011.7 hPa | - | - | - | - |
| 1787999720 | 16.67° C | 99% | 1011.7 hPa | - | - | - | - |
| 1787999433 | 16.67° C | 99% | 1011.7 hPa | - | - | - | - |
| 1787999102 | 16.67° C | 99% | 1011.6 hPa | - | - | - | - |
| 1787998806 | 16.67° C | 99% | 1011.5 hPa | - | - | - | - |
| 1787998486 | 16.67° C | 99% | 1011.5 hPa | - | - | - | - |
| 1787998179 | 16.67° C | 99% | 1011.4 hPa | - | - | - | - |
| 1787997873 | 16.67° C | 99% | 1011.2 hPa | - | - | - | - |
* Rain since midnight (hover to see other rain measurements)
** Current wind speed in m/s (hover to see current wind gust speed)